Vancouver, WA

1:11 AM PST on December 10, 2016 (GMT -0800)
Pearson

Weather History for KVUO - June, 2012

Change the Weather History Date:

Wednesday, June 27, 2012

  Actual Average Record
Temperature  
Mean Temperature 65 °F 65 °F  
Max Temperature 78 °F 76 °F 97 °F (2000)
Min Temperature 51 °F 55 °F 39 °F (1976)
Degree Days  
Heating Degree Days 0    
Month to date heating degree days 120  
Since 1 June heating degree days 120  
Since 1 July heating degree days 4359  
Cooling Degree Days 0    
Month to date cooling degree days 15  
Year to date cooling degree days 29  
Since 1 June cooling degree days 15  
Growing Degree Days 14 (Base 50)    
Moisture  
Dew Point 47 °F    
Average Humidity 61    
Maximum Humidity 93    
Minimum Humidity 28    
Precipitation  
Precipitation 0.00 in 0.05 in 0.53 in (1903)
Month to date precipitation 3.32 1.67  
Year to date precipitation 26.30 20.25  
Snow  
Snow 0.00 in - - ()
Month to date snowfall 0.0  
Since 1 June snowfall 0.0  
Snow Depth 0.00 in    
Sea Level Pressure  
Sea Level Pressure 29.99 in    
Wind  
Wind Speed 4 mph (West)    
Max Wind Speed 9 mph    
Max Gust Speed 15 mph    
Visibility 10 miles    
Events      
T = Trace of Precipitation, MM = Missing Value Source: NWS Daily Summary

Daily Weather History Graph

Daily Weather History Graph

Search for Another Location

Airport or City:

Trip Planner

Search our weather history database for the weather conditions in past years. The results will help you decide how hot, cold, wet, or windy it might be!

Date:

Astronomy

Jun. 27, 2012 Rise Set
Actual Time 5:23 AM PDT 9:03 PM PDT
Civil Twilight 4:45 AM PDT 9:41 PM PDT
Nautical Twilight 3:54 AM PDT 10:32 PM PDT
Astronomical Twilight 2:45 AM PDT 11:41 PM PDT
Moon 2:22 PM PDT (6/27) 12:40 AM PDT (6/27)
Length of Visible Light 16h 56m
Length of Day
15h 40m
First Quarter, 57% of the Moon is Illuminated
Jun 27
First Quarter
Jul 3
Full
Jul 10
Last Quarter
Jul 18
New
Jul 26
First Quarter

Hourly Weather History & Observations

Time (PDT) Temp. Dew Point Humidity Pressure Visibility Wind Dir Wind Speed Gust Speed Precip Events Conditions
12:53 AM 52.0 °F 48.9 °F 89% 30.07 in 10.0 mi Calm Calm - N/A   Clear
1:53 AM 51.1 °F 48.0 °F 89% 30.06 in 10.0 mi Calm Calm - 0.01 in   Partly Cloudy
2:07 AM 51.8 °F 48.2 °F 88% 30.06 in 10.0 mi Calm Calm - N/A   Mostly Cloudy
2:53 AM 54.0 °F 50.0 °F 86% 30.06 in 10.0 mi Calm Calm - N/A   Overcast
3:53 AM 55.0 °F 51.1 °F 86% 30.06 in 10.0 mi Calm Calm - N/A   Overcast
4:53 AM 54.0 °F 51.1 °F 90% 30.06 in 10.0 mi South 3.5 mph - N/A   Overcast
5:53 AM 54.0 °F 48.9 °F 83% 30.06 in 10.0 mi WNW 3.5 mph - N/A   Overcast
6:53 AM 53.1 °F 48.0 °F 83% 30.07 in 10.0 mi NW 6.9 mph - N/A   Overcast
7:53 AM 53.1 °F 48.0 °F 83% 30.07 in 10.0 mi NW 4.6 mph - N/A   Overcast
8:53 AM 54.0 °F 48.9 °F 83% 30.06 in 10.0 mi WNW 3.5 mph - N/A   Overcast
9:53 AM 55.9 °F 48.9 °F 77% 30.04 in 10.0 mi WSW 5.8 mph - N/A   Mostly Cloudy
10:03 AM 57.2 °F 50.0 °F 77% 30.04 in 10.0 mi SW 5.8 mph - N/A   Partly Cloudy
10:53 AM 60.1 °F 51.1 °F 72% 30.03 in 10.0 mi WSW 4.6 mph - N/A   Clear
11:53 AM 66.0 °F 50.0 °F 56% 30.01 in 10.0 mi NW 8.1 mph - N/A   Clear
12:53 PM 70.0 °F 46.9 °F 44% 29.99 in 10.0 mi WNW 6.9 mph - N/A   Clear
1:53 PM 72.0 °F 46.9 °F 41% 29.97 in 10.0 mi West 5.8 mph - N/A   Clear
2:53 PM 73.0 °F 44.1 °F 35% 29.94 in 10.0 mi WSW 6.9 mph - N/A   Clear
3:53 PM 75.0 °F 43.0 °F 32% 29.93 in 10.0 mi SW 3.5 mph - N/A   Clear
4:53 PM 75.9 °F 43.0 °F 31% 29.91 in 10.0 mi Variable 4.6 mph - N/A   Clear
5:53 PM 77.0 °F 42.1 °F 29% 29.89 in 10.0 mi West 5.8 mph - N/A   Clear
6:53 PM 77.0 °F 41.0 °F 28% 29.88 in 10.0 mi Calm Calm - N/A   Clear
7:53 PM 77.0 °F 39.0 °F 25% 29.88 in 10.0 mi Calm Calm - N/A   Clear
8:53 PM 69.1 °F 46.0 °F 44% 29.88 in 10.0 mi Calm Calm - N/A   Clear
9:53 PM 62.1 °F 48.0 °F 60% 29.89 in 10.0 mi Calm Calm - N/A   Clear
10:53 PM 64.0 °F 48.0 °F 56% 29.90 in 10.0 mi Calm Calm - N/A   Clear
11:53 PM 57.0 °F 48.0 °F 72% 29.91 in 10.0 mi Calm Calm - N/A   Clear